Home > Weather > Vantaa > Past weeks

Flag for Finland Past Weather in Vantaa, Finland — Yesterday and Last 2 Weeks

Now
63 °F

Fog.


Feels Like: 63 °F
Forecast: 56 / 67 °F
Wind: 3 mph from Northwest

Location: Helsinki-Vantaa

Current Time: Jun 26, 2016 at 4:13:46 AM

Latest Report: Jun 26, 2016 at 3:20 AM


Visibility: N/A

Pressure: 29.98 "Hg

Humidity: 94%

Dew Point: 61 °F

Location of VantaaLocation

Past Weather in Vantaa — Graph

°F

Vantaa Temperature Yesterday

Maximum temperature yesterday: 77 °F (at 5:20 PM)
Minimum temperature yesterday: 59 °F (at 3:20 AM)
Average temperature yesterday: 67 °F

High & Low Weather Summary for the Past Weeks

 TemperatureHumidityPressure
High77 °F (Jun 25, 5:20 PM)100% (Jun 16, 3:50 AM)30.24 "Hg (Jun 16, 3:50 AM)
Low39 °F (Jun 11, 2:50 AM)26% (Jun 14, 4:20 PM)29.30 "Hg (Jun 18, 6:50 AM)
Average60 °F74%29.85 "Hg
* Reported Jun 11 2:20 AM — Jun 26 2:50 AM, Vantaa, Weather by CustomWeather, © 2016

Note: Actual official high and low records may vary slightly from our data, if they occured in-between our weather recording intervals... More about our weather records

Advertising

Vantaa Weather History for the Previous 24 Hours

Scroll right to see more
 ConditionsComfort  
Time TempWeatherWind HumidityBarometerVisibility
2:50 AM
Sun, Jun 26
63 °FFog.3 mph100%29.98 "HgN/A
2:20 AM61 °FFog.1 mph100%29.98 "HgN/A
1:50 AM63 °FFog.2 mph100%29.98 "HgN/A
1:20 AM64 °FFog.3 mph94%29.98 "HgN/A
12:50 AM64 °FFog.3 mph94%29.98 "HgN/A
12:20 AM66 °FClear.6 mph88%29.98 "Hg10 mi
11:50 PM
Sat, Jun 25
66 °FSunny.5 mph88%29.98 "Hg10 mi
11:20 PM66 °FSunny.7 mph88%29.98 "Hg10 mi
10:50 PM70 °FSunny.8 mph83%29.98 "Hg10 mi
10:20 PM72 °FSunny.8 mph78%29.95 "Hg10 mi
9:50 PM73 °FSunny.7 mph78%29.95 "Hg10 mi
9:20 PM75 °FPassing clouds.8 mph69%29.95 "HgN/A
8:50 PM75 °FPassing clouds.8 mph69%29.95 "HgN/A
8:20 PM75 °FPassing clouds.9 mph69%29.95 "HgN/A
7:50 PM77 °FPassing clouds.10 mph65%29.95 "HgN/A
7:20 PM77 °FPassing clouds.12 mph65%29.98 "HgN/A
6:50 PM77 °FPassing clouds.12 mph69%29.98 "HgN/A
6:20 PM77 °FPassing clouds.10 mph69%29.98 "HgN/A
5:50 PM77 °FPassing clouds.12 mph65%29.98 "HgN/A
5:20 PM77 °FPassing clouds.9 mph65%29.98 "HgN/A
4:50 PM75 °FPassing clouds.9 mph69%29.98 "HgN/A
4:20 PM73 °FScattered clouds.10 mph74%30.01 "HgN/A
3:50 PM73 °FScattered clouds.10 mph74%30.01 "HgN/A
3:20 PM73 °FScattered clouds.10 mph69%30.01 "HgN/A
2:50 PM72 °FScattered clouds.9 mph73%30.01 "HgN/A
2:20 PM72 °FPartly sunny.9 mph73%30.01 "HgN/A
1:50 PM75 °FPartly sunny.5 mph65%30.01 "HgN/A
1:20 PM73 °FPassing clouds.6 mph69%30.01 "HgN/A
12:50 PM72 °FPassing clouds.5 mph69%30.01 "HgN/A
12:20 PM70 °FPassing clouds.7 mph73%30.01 "HgN/A
11:50 AM68 °FScattered clouds.7 mph78%30.01 "HgN/A
11:20 AM66 °FPartly sunny.5 mph78%30.01 "HgN/A
10:50 AM64 °FPartly sunny.6 mph88%30.01 "HgN/A
10:20 AM63 °FPartly sunny.6 mph94%30.01 "HgN/A
9:50 AM63 °FPartly sunny.6 mph94%29.98 "HgN/A
9:20 AM61 °FPartly sunny.6 mph100%29.98 "Hg6 mi
8:50 AM61 °FPartly sunny.5 mph94%29.98 "Hg4 mi
8:20 AM61 °FPartly sunny.5 mph94%29.98 "Hg4 mi
7:50 AM61 °FDrizzle. Fog.5 mph94%29.98 "Hg2 mi
7:20 AM59 °FDrizzle. Fog.5 mph100%29.98 "Hg2 mi
6:50 AM59 °FDrizzle. Fog.5 mph100%29.98 "Hg1 mi
6:20 AM59 °FDrizzle. Fog.3 mph100%29.98 "Hg1 mi
5:50 AM59 °FDrizzle. Fog.5 mph100%29.98 "Hg1 mi
5:20 AM59 °FFog.5 mph100%29.98 "Hg1 mi
4:50 AM59 °FFog.6 mph100%29.98 "Hg1 mi
4:20 AM59 °FFog.7 mph100%29.98 "Hg1 mi
Weather by CustomWeather, © 2016

See weather overviewHow to use our weather pages